TEVEL2-2

Last updated on Fri Dec 19 2025 00:03:12 GMT+0000 (Coordinated Universal Time)

1 63219U 25052K 25352.21233311 .00015170 00000+0 57780-3 0 9991 2 63219 97.4085 243.7852 0005222 60.3842 299.7917 15.26806589 42416
UTC large
Height (km)
Speed (km/s)
/
Latitude / Longitude
Inclination (degrees)
Orbital Period (minutes)
Azimuth
Elevation
Range (km)
Doppler Factor

Next 0 passes for location: London (51.5072 / 0.1276)

Sorry there are no passes over London.